Voltar ao catálogo

STARLINK-11434

AtivoComunicaçõesVLEO
NORAD 62420·PAYLOAD·🇺🇸 United States

Lançado Dec 23, 2024 de Cape Canaveral Space Force Station

Loading…

Próximas Passagens (próximas 24 horas)

TLE

AtualizadoSource: CelesTrak SupGP

Época: Sep 15, 2026, 03:04 UTC

1 62420C 24249M   26258.12826389  .00086019  00000+0  66738-3 0  2581
2 62420  43.0002 106.0147 0001769 278.4911  14.6226 15.70821406    15

Acompanhe STARLINK-11434 em tempo real com AllMySat

Download on the App Store